Location: Auttagershofen
(48.1940°N, 10.0237°E)
Time: 22:08:56
(UTC+00:00)

Cosmos 1140 Rocket - Pass Details

Date: 18 January 2026
Orbit: 739 x 763 km, 74.1° (Epoch: 17 February)

Event Time Altitude Azimuth Distance (km) Brightness Sun altitude
Rises 06:10:50 0° 239° (WSW) 3,168 6.3 -8.7°
Reaches altitude 10° 06:13:34 10° 252° (WSW) 2,252 5.5 -8.3°
Maximum altitude 06:17:44 25° 307° (NW) 1,488 4.5 -7.6°
Drops below altitude 10° 06:21:56 10° 2° (N) 2,273 5.7 -7.0°
Sets 06:24:44 0° 16° (NNE) 3,206 6.6 -6.6°
